Погода в Утамыше

Россия / Республика Дагестан     42°24′28″N   47°45′05″E
темп.,
°C
ветер,
м/с
пор.,
м/с
влажн.,
%
обл.,
%
осадки,
мм/ч
давл.,
гПа
погр.,
м
20 апреля, вт
вт2000:00+13ююз0169100 0.0 101610
03:00+12ююв227377 0.0 101515
06:00+13ююв4568100 0.0 1014105
09:00+17юв6854100 0.0 1012456
12:00+20юв7848100 0.0 1011604
15:00+20юв785297 0.0 1007392
18:00+17ююв5759100 0.0 1007124
21:00+18ююз2353100 0.0 100643
21 апреля, ср
ср2100:00+16ссз1261100 0.0 100822
03:00+15с2267100 0.0 101041
06:00+13юв2277100 0.0 101352
09:00+16вюв2271100 0.0 1014414
12:00+18св4364100 0.0 1015836
15:00+18с6658100 0.0 10151029
18:00+14сз5776100 0.9 1018352
21:00+13зсз6107777 0.9 1020385
22 апреля, чт
чт2200:00+11ссз2387100 0.0 102038
03:00+11сз2286100 0.0 102025
06:00+12сз1279100 0.0 1020130
09:00+15с446446 0.0 1020663
12:00+17с775955 0.0 10201029
15:00+14ссз786786 0.0 1021917
18:00+12с3475100 0.1 1022413
21:00+12сз2381100 0.7 1021154
23 апреля, пт
пт2300:00+11с348175 0.0 1019114
03:00+10сз358366 0.0 1019249
06:00+11сз487758 0.0 1020480
09:00+13ссз8106850 0.0 1020920
12:00+13ссз786876 0.0 1021909
15:00+13ссз786690 0.0 1021916
18:00+13ссз476418 0.0 1022347
21:00+10ююз22780 0.0 102316
24 апреля, сб
сб2400:00+9ююз22820 0.0 102111
03:00+9ююз227874 0.0 102011
06:00+11ю2274100 0.0 102046
09:00+14юв5661100 0.0 1020671
12:00+15вюв555748 0.0 1019919
15:00+16вюв55555 0.0 1019809
18:00+13вюв35681 0.0 1020221
21:00+10ююв237754 0.0 102127